This is the latest recevied weather packets stored in our database for station/object K5OLV. If no packets are shown the sender has not sent any weather packets the latest 10 day(s).
| Time | Temp. | Humidity | Pressure | Rain* | Wind** | Luminosity | Snow |
|---|---|---|---|---|---|---|---|
| 1777512284 | 17.78° C | 90% | 1010.1 hPa | 0 mm | - | 0 W/m² | - |
| 1777511981 | 17.78° C | 90% | 1009.5 hPa | 0 mm | - | 0 W/m² | - |
| 1777511679 | 18.33° C | 90% | 1009.7 hPa | 0 mm | - | 0 W/m² | - |
| 1777511377 | 18.33° C | 89% | 1009.7 hPa | 0 mm | - | 0 W/m² | - |
| 1777511072 | 18.33° C | 89% | 1009.7 hPa | 0 mm | - | 0 W/m² | - |
| 1777510768 | 18.33° C | 89% | 1009.5 hPa | 0 mm | - | 0 W/m² | - |
| 1777510466 | 18.33° C | 89% | 1009.6 hPa | 0 mm | - | 0 W/m² | - |
| 1777510161 | 18.33° C | 88% | 1009.4 hPa | 0 mm | - | 0 W/m² | - |
| 1777509859 | 18.33° C | 89% | 1009.6 hPa | 0 mm | - | 0 W/m² | - |
| 1777509559 | 18.89° C | 89% | 1009.3 hPa | 0 mm | - | 0 W/m² | - |
| 1777509256 | 18.89° C | 90% | 1009.5 hPa | 0 mm | - | 0 W/m² | - |
| 1777508953 | 18.89° C | 89% | 1009.2 hPa | 0 mm | - | 0 W/m² | - |
| 1777508650 | 18.89° C | 90% | 1009.3 hPa | 0 mm | - | 0 W/m² | - |
| 1777508348 | 18.89° C | 89% | 1009.3 hPa | 0 mm | - | 0 W/m² | - |
| 1777508045 | 18.89° C | 89% | 1009.1 hPa | 0 mm | - | 1 W/m² | - |
| 1777507741 | 19.44° C | 89% | 1009.1 hPa | 0 mm | - | 3 W/m² | - |
| 1777507438 | 19.44° C | 89% | 1008.9 hPa | 0 mm | - | 7 W/m² | - |
| 1777507135 | 19.44° C | 89% | 1008.9 hPa | 0 mm | - | 9 W/m² | - |
| 1777506833 | 19.44° C | 89% | 1008.9 hPa | 0 mm | - | 12 W/m² | - |
| 1777506530 | 19.44° C | 90% | 1009 hPa | 0 mm | - | 13 W/m² | - |
| 1777506224 | 19.44° C | 89% | 1008.7 hPa | 0 mm | - | 16 W/m² | - |
| 1777505922 | 19.44° C | 89% | 1008.7 hPa | 0 mm | - | 18 W/m² | - |
| 1777505617 | 20° C | 89% | 1008.5 hPa | 0 mm | - | 24 W/m² | - |
| 1777505315 | 20° C | 88% | 1008.4 hPa | 0 mm | - | 22 W/m² | - |
| 1777505011 | 20° C | 89% | 1008.6 hPa | 0 mm | - | 29 W/m² | - |
* Rain latest hour (hover to see other rain measurements)
** Current wind speed in m/s (hover to see current wind gust speed)